• In Deutschland
  • Länderverzeichnis
  • Für 7 Tage
  • Wassertemperatur
  • Satellitenkarten
  • Wetterkarte
  • Widgets
  • user-avatar
    Anmelden

    Stündliche Wetter Ndofane

    Heute, 15 August, Mittwoch

    Zeit Temperatur Niederschläge Wind Luftdruck Luftfeuchtigkeit
    00:00 +27°C° 0 mm 4 m/S 760 mmHg 69%
    01:00 +27°C° 0 mm 4 m/S 760 mmHg 70%
    02:00 +27°C° 0 mm 4 m/S 759 mmHg 72%
    03:00 +26°C° 0 mm 4 m/S 759 mmHg 73%
    04:00 +26°C° 0 mm 4 m/S 759 mmHg 74%
    05:00 +26°C° 0 mm 3 m/S 759 mmHg 75%
    06:00 +27°C° 0 mm 3 m/S 759 mmHg 72%
    07:00 +28°C° 0 mm 4 m/S 760 mmHg 69%
    08:00 +28°C° 0 mm 4 m/S 760 mmHg 66%
    09:00 +30°C° 0 mm 4 m/S 760 mmHg 59%
    10:00 +33°C° 0 mm 3 m/S 760 mmHg 53%
    11:00 +35°C° 0 mm 3 m/S 760 mmHg 46%
    12:00 +35°C° 0 mm 4 m/S 760 mmHg 44%
    13:00 +36°C° 0 mm 4 m/S 759 mmHg 42%
    14:00 +37°C° 0 mm 5 m/S 759 mmHg 40%
    15:00 +36°C° 0 mm 5 m/S 758 mmHg 44%
    16:00 +35°C° 0 mm 6 m/S 758 mmHg 48%
    17:00 +34°C° 0 mm 7 m/S 758 mmHg 53%
    18:00 +33°C° 0,8 mm 7 m/S 758 mmHg 59%
    19:00 +30°C° 0,8 mm 6 m/S 759 mmHg 65%
    20:00 +29°C° 0,8 mm 6 m/S 759 mmHg 71%
    21:00 +29°C° 0 mm 6 m/S 760 mmHg 72%
    22:00 +28°C° 0 mm 5 m/S 760 mmHg 73%
    23:00 +28°C° 0 mm 5 m/S 760 mmHg 75%

    Morgen, 16 August, Donnerstag

    Zeit Temperatur Niederschläge Wind Luftdruck Luftfeuchtigkeit
    00:00 +28°C° 0 mm 5 m/S 760 mmHg 76%
    01:00 +28°C° 0 mm 5 m/S 759 mmHg 77%
    02:00 +28°C° 0 mm 5 m/S 759 mmHg 79%
    03:00 +27°C° 0 mm 4 m/S 759 mmHg 80%
    04:00 +27°C° 0 mm 4 m/S 759 mmHg 81%
    05:00 +27°C° 0 mm 4 m/S 758 mmHg 82%
    06:00 +28°C° 0 mm 4 m/S 759 mmHg 78%
    07:00 +29°C° 0 mm 4 m/S 759 mmHg 74%
    08:00 +29°C° 0 mm 4 m/S 759 mmHg 70%
    09:00 +31°C° 0 mm 3 m/S 760 mmHg 61%
    10:00 +34°C° 0 mm 3 m/S 760 mmHg 53%
    11:00 +36°C° 0 mm 3 m/S 760 mmHg 45%
    12:00 +37°C° 0 mm 4 m/S 760 mmHg 44%
    13:00 +37°C° 0 mm 4 m/S 759 mmHg 44%
    14:00 +39°C° 0 mm 5 m/S 758 mmHg 43%
    15:00 +36°C° 0 mm 5 m/S 758 mmHg 48%
    16:00 +35°C° 0 mm 6 m/S 758 mmHg 54%
    17:00 +33°C° 0 mm 6 m/S 758 mmHg 59%
    18:00 +32°C° 0 mm 5 m/S 758 mmHg 62%
    19:00 +32°C° 0 mm 5 m/S 759 mmHg 66%
    20:00 +30°C° 0 mm 4 m/S 759 mmHg 69%
    21:00 +30°C° 0 mm 4 m/S 759 mmHg 70%
    22:00 +30°C° 0 mm 4 m/S 760 mmHg 71%
    23:00 +30°C° 0 mm 4 m/S 760 mmHg 72%

    übermorgen, 17 August, Freitag

    Zeit Temperatur Niederschläge Wind Luftdruck Luftfeuchtigkeit
    00:00 +29°C° 0 mm 4 m/S 759 mmHg 73%
    01:00 +29°C° 0 mm 4 m/S 759 mmHg 74%
    02:00 +29°C° 0 mm 4 m/S 759 mmHg 75%
    03:00 +29°C° 0 mm 4 m/S 759 mmHg 77%
    04:00 +29°C° 0 mm 4 m/S 758 mmHg 79%
    05:00 +28°C° 0 mm 4 m/S 758 mmHg 80%
    06:00 +29°C° 0 mm 4 m/S 759 mmHg 78%
    07:00 +30°C° 0 mm 4 m/S 759 mmHg 75%
    08:00 +30°C° 0 mm 4 m/S 760 mmHg 72%
    09:00 +33°C° 0 mm 4 m/S 760 mmHg 65%
    10:00 +34°C° 0 mm 4 m/S 760 mmHg 57%
    11:00 +36°C° 0 mm 4 m/S 760 mmHg 49%
    12:00 +36°C° 0 mm 5 m/S 759 mmHg 48%
    13:00 +36°C° 0 mm 5 m/S 759 mmHg 47%
    14:00 +38°C° 0 mm 6 m/S 758 mmHg 46%
    15:00 +36°C° 0 mm 6 m/S 757 mmHg 51%
    16:00 +34°C° 0 mm 6 m/S 757 mmHg 55%
    17:00 +33°C° 0 mm 7 m/S 757 mmHg 60%
    18:00 +32°C° 0 mm 6 m/S 757 mmHg 65%
    19:00 +30°C° 0 mm 6 m/S 758 mmHg 70%
    20:00 +29°C° 0 mm 5 m/S 759 mmHg 75%
    21:00 +29°C° 0 mm 5 m/S 759 mmHg 76%
    22:00 +29°C° 0 mm 5 m/S 759 mmHg 78%
    23:00 +29°C° 0 mm 5 m/S 759 mmHg 79%

    18 August, Samstag

    Zeit Temperatur Niederschläge Wind Luftdruck Luftfeuchtigkeit
    00:00 +29°C° 0 mm 5 m/S 759 mmHg 80%
    01:00 +28°C° 0 mm 5 m/S 758 mmHg 80%
    02:00 +28°C° 0 mm 6 m/S 757 mmHg 81%
    03:00 +28°C° 0 mm 5 m/S 757 mmHg 81%
    04:00 +28°C° 0 mm 5 m/S 757 mmHg 80%
    05:00 +28°C° 0 mm 5 m/S 757 mmHg 79%
    06:00 +29°C° 0 mm 5 m/S 757 mmHg 77%
    07:00 +29°C° 0 mm 5 m/S 758 mmHg 75%
    08:00 +29°C° 0 mm 5 m/S 758 mmHg 73%
    09:00 +30°C° 0 mm 5 m/S 758 mmHg 68%
    10:00 +32°C° 0 mm 5 m/S 758 mmHg 63%
    11:00 +33°C° 0 mm 5 m/S 758 mmHg 58%
    12:00 +34°C° 0 mm 6 m/S 757 mmHg 57%
    13:00 +34°C° 0 mm 6 m/S 757 mmHg 56%
    14:00 +34°C° 0 mm 6 m/S 756 mmHg 55%
    15:00 +33°C° 0 mm 6 m/S 756 mmHg 58%
    16:00 +33°C° 0 mm 6 m/S 755 mmHg 61%
    17:00 +32°C° 0 mm 6 m/S 755 mmHg 64%
    18:00 +30°C° 0 mm 6 m/S 756 mmHg 68%
    19:00 +29°C° 0 mm 6 m/S 756 mmHg 72%
    20:00 +28°C° 0 mm 5 m/S 757 mmHg 76%
    21:00 +28°C° 0 mm 5 m/S 757 mmHg 77%
    22:00 +28°C° 0 mm 5 m/S 757 mmHg 78%
    23:00 +28°C° 0 mm 5 m/S 757 mmHg 79%

    19 August, Sonntag

    Zeit Temperatur Niederschläge Wind Luftdruck Luftfeuchtigkeit
    00:00 +28°C° 0 mm 5 m/S 757 mmHg 80%
    01:00 +28°C° 0 mm 5 m/S 756 mmHg 80%
    02:00 +27°C° 0 mm 6 m/S 756 mmHg 81%
    03:00 +27°C° 0 mm 5 m/S 756 mmHg 80%
    04:00 +27°C° 0 mm 5 m/S 756 mmHg 80%
    05:00 +27°C° 0 mm 5 m/S 756 mmHg 80%
    06:00 +28°C° 0 mm 5 m/S 757 mmHg 78%
    07:00 +28°C° 0 mm 5 m/S 757 mmHg 76%
    08:00 +28°C° 0 mm 5 m/S 758 mmHg 75%
    09:00 +29°C° 0 mm 5 m/S 758 mmHg 68%
    10:00 +32°C° 0 mm 5 m/S 758 mmHg 62%
    11:00 +33°C° 0 mm 5 m/S 758 mmHg 56%
    12:00 +32°C° 0 mm 6 m/S 757 mmHg 58%
    13:00 +32°C° 0 mm 6 m/S 756 mmHg 61%
    14:00 +30°C° 0 mm 7 m/S 755 mmHg 64%
    15:00 +30°C° 0 mm 6 m/S 755 mmHg 66%
    16:00 +29°C° 0 mm 6 m/S 755 mmHg 68%
    17:00 +29°C° 0 mm 5 m/S 756 mmHg 70%
    18:00 +29°C° 0 mm 4 m/S 756 mmHg 71%
    19:00 +29°C° 0 mm 4 m/S 757 mmHg 72%
    20:00 +28°C° 0 mm 3 m/S 758 mmHg 73%
    21:00 +28°C° 0 mm 3 m/S 758 mmHg 74%
    22:00 +28°C° 0 mm 3 m/S 758 mmHg 75%
    23:00 +28°C° 0 mm 3 m/S 758 mmHg 76%

    20 August, Montag

    Zeit Temperatur Niederschläge Wind Luftdruck Luftfeuchtigkeit
    00:00 +28°C° 0 mm 3 m/S 758 mmHg 78%
    01:00 +27°C° 0 mm 3 m/S 757 mmHg 79%
    02:00 +27°C° 0 mm 3 m/S 757 mmHg 81%
    03:00 +27°C° 0,1 mm 3 m/S 757 mmHg 82%
    04:00 +27°C° 0,1 mm 3 m/S 757 mmHg 83%
    05:00 +27°C° 0,1 mm 3 m/S 757 mmHg 83%
    06:00 +27°C° 0,1 mm 3 m/S 757 mmHg 80%
    07:00 +28°C° 0,1 mm 3 m/S 758 mmHg 77%
    08:00 +28°C° 0,1 mm 3 m/S 758 mmHg 74%
    09:00 +30°C° 0 mm 3 m/S 758 mmHg 69%
    10:00 +32°C° 0 mm 4 m/S 758 mmHg 64%
    11:00 +33°C° 0 mm 4 m/S 758 mmHg 58%
    12:00 +33°C° 0 mm 4 m/S 758 mmHg 57%
    13:00 +34°C° 0 mm 5 m/S 757 mmHg 55%
    14:00 +34°C° 0 mm 5 m/S 757 mmHg 53%
    15:00 +33°C° 0 mm 5 m/S 757 mmHg 55%
    16:00 +33°C° 0 mm 5 m/S 757 mmHg 56%
    17:00 +32°C° 0 mm 5 m/S 757 mmHg 57%
    18:00 +30°C° 0 mm 4 m/S 758 mmHg 61%
    19:00 +30°C° 0 mm 4 m/S 758 mmHg 64%
    20:00 +29°C° 0 mm 3 m/S 759 mmHg 68%
    21:00 +29°C° 0 mm 3 m/S 759 mmHg 69%
    22:00 +28°C° 0 mm 3 m/S 759 mmHg 70%
    23:00 +28°C° 0 mm 3 m/S 759 mmHg 71%
    Mehr zeigen